Weather in Nikolayevka

Russia / Jewish Autonomous Oblast     48°33′18″N   134°46′51″E
temp.,
°C
wind,
m/s
gust,
m/s
humid.,
%
clouds,
%
prec.,
mm/h
press.,
hPa
HPBL,
m
11 may, tue
tue1101:00+4ene367555 0.0 1014182
04:00+3ne277983 0.0 1015249
07:00+4ne277662 0.0 1017349
10:00+9ne345622 0.0 10171077
13:00+11nw2353100 0.0 10181512
16:00+11wnw335897 0.1 10171227
19:00+10wnw326550 0.1 1017616
22:00+6wsw00845 0.1 101810
12 may, wed
wed1201:00+5sse00885 0.0 101910
04:00+4ese22885 0.0 101812
07:00+6ese247344 0.0 1018109
10:00+13se3553100 0.0 1015924
13:00+17sse5744100 0.0 10131716
16:00+16ssw5952100 0.0 10111637
19:00+10s71389100 2.8 1011977
22:00+10sse51288100 6.3 10101009
13 may, thu
thu1301:00+10ssw71383100 0.1 1010699
04:00+8s5128599 0.1 1009472
07:00+9se268595 0.0 1008320
10:00+13s7968100 0.1 10071202
13:00+13sw6973100 0.8 10071060
16:00+17wsw5951100 1.6 10061786
19:00+15w796390 0.4 1007855
22:00+10sw358428 0.5 100888
14 may, fri
fri1401:00+9sw35875 0.0 100876
04:00+8sw34900 0.0 100852
07:00+10sw25815 0.0 1009145
10:00+17sw34560 0.0 1009666
13:00+21sw46415 0.0 10081310
16:00+23sw4532100 0.0 10062258
19:00+21sse3343100 0.0 100547
22:00+16sse4650100 0.0 100492
15 may, sat
sat1501:00+17s51446100 0.0 1001573
04:00+12ssw81490100 4.4 1000763
07:00+12sw61092100 2.0 1000682
10:00+16wsw7951100 2.0 10021016
13:00+19wsw81135100 0.0 10002458
16:00+19wsw9123598 0.0 9993007
19:00+15w7115399 0.1 9991297
22:00+12wsw7126519 0.5 1000629